Find Huakai Tianxia

NORAD ID: 58923 Int'l Des: NNA 2024-024 Owner: GUOX Country: CN operational
LEOCIRCULARRETROGRADE

リアルタイム位置

3D地球を読み込み中...

Huakai Tianxiaについて

説明を読み込み中...

次回通過

Passes for default location (London). Set your location on the main map for personalized predictions.

高度履歴

Loading altitude history...

軌道要素

1 58923U 24024G 26107.36071625 .00922308 55418-3 68632-3 0 9993
2 58923 97.3044 203.7427 0008524 257.0869 102.9466 16.15529274123935
Epoch: Apr 17, 2026 • Age: 6 hours

現在のステータス

高度 249.0 km
速度 7.76 km/s
衛星直下点 -58.40°S, 154.85°E
打ち上げ日 Feb 3, 2024
運用期間 2.2 years
タイプ other

技術仕様

分類 Payload
質量 25.00 kg
乾燥質量 25.00 kg
総質量 25.00 kg
長さ 0.30 m
直径 0.30 m
スパン 0.30 m
形状 Box + 3 pan
製造者 WEINA/GUOX
バスタイプ XSD
フェーズステータス In Orbit
所有者/国 GUOX/CN

Most Searched